Location: Düngen
(52.0952°N, 10.0219°E)
Time: 19:02:13
(UTC+00:00)

Cosmos 1842 Rocket - Pass Details

Date: 11 March 2026
Orbit: 598 x 626 km, 82.5° (Epoch: 20 April)

Event Time Altitude Azimuth Distance (km) Brightness Sun altitude
Rises 19:24:50 0° 345° (NNW) 2,875 7.5 -20.0°
Reaches altitude 10° 19:27:07 10° 340° (NNW) 1,963 6.7 -20.4°
Maximum altitude 19:31:17 48° 266° (W) 794 4.4 -21.0°
Drops below altitude 10° 19:35:24 10° 192° (SSW) 1,937 6.0 -21.5°
Enters shadow 19:35:25 10° 192° (SSW) 1,940 6.0 -21.5°
